Change the Weather History Date:

Sunday, March 17, 2013

  Actual Average Record
Temperature  
Mean Temperature 38 °F 48 °F  
Max Temperature 40 °F 59 °F 84 °F (1994)
Min Temperature 35 °F 37 °F 12 °F (1941)
Degree Days  
Heating Degree Days 27 18  
Month to date heating degree days 379 345  
Since 1 July heating degree days 3471 3917  
Cooling Degree Days 0 0  
Month to date cooling degree days 0 0  
Year to date cooling degree days 1 0  
Moisture  
Dew Point 34 °F    
Average Humidity 93    
Maximum Humidity 100    
Minimum Humidity 85    
Precipitation  
Precipitation 0.36 in 0.10 in 1.50 in (1987)
Month to date precipitation 0.78 1.58  
Year to date precipitation 6.24 4.74  
Sea Level Pressure  
Sea Level Pressure 29.88 in    
Wind  
Wind Speed 11 mph (NE)    
Max Wind Speed 26 mph    
Max Gust Speed 33 mph    
Visibility 7 miles    
Events Rain , Thunderstorm    
T = Trace of Precipitation, MM = Missing Value Source: NWS Daily Summary

Daily Weather History Graph

Daily Weather History Graph

Search for Another Location

Airport or City:

Trip Planner

Search our weather history database for the weather conditions in past years. The results will help you decide how hot, cold, wet, or windy it might be!

Date:

Astronomy

Mar. 17, 2013 Rise Set
Actual Time 7:29 AM CDT 7:31 PM CDT
Civil Twilight 7:03 AM CDT 7:57 PM CDT
Nautical Twilight 6:33 AM CDT 8:27 PM CDT
Astronomical Twilight 6:02 AM CDT 8:58 PM CDT
Moon 10:49 AM CDT (3/17) 12:34 AM CDT (3/17)
Length of Visible Light 12h 53m
Length of Day
12h 01m
Waxing Crescent, 31% of the Moon is Illuminated
Mar 17
Waxing Crescent
Mar 19
First Quarter
Mar 27
Full
Apr 2
Last Quarter
Apr 10
New

Hourly Weather History & Observations

Time (CDT) Temp. Windchill Dew Point Humidity Pressure Visibility Wind Dir Wind Speed Gust Speed Precip Events Conditions
12:08 AM 41.0 °F 33.1 °F 30.2 °F 65% 29.96 in 10.0 mi NE 15.0 mph 24.2 mph N/A Thunderstorm Overcast
12:52 AM 39.9 °F 31.4 °F 30.0 °F 68% 29.98 in 10.0 mi NE 16.1 mph 32.2 mph N/A Thunderstorm Overcast
1:21 AM 39.2 °F 29.6 °F 30.2 °F 70% 29.97 in 10.0 mi NNE 19.6 mph 25.3 mph N/A   Overcast
1:34 AM 37.4 °F 28.5 °F 30.2 °F 75% 29.96 in 10.0 mi NE 15.0 mph 25.3 mph 0.00 in Rain , Thunderstorm Light Rain
1:45 AM 37.4 °F 28.5 °F 32.0 °F 81% 29.97 in 5.0 mi NE 15.0 mph 24.2 mph 0.04 in Rain , Thunderstorm Rain
1:52 AM 37.0 °F 28.1 °F 32.0 °F 82% 29.96 in 6.0 mi NE 15.0 mph 23.0 mph 0.05 in Rain , Thunderstorm Rain
2:06 AM 37.4 °F 29.3 °F 33.8 °F 87% 29.97 in 10.0 mi NE 12.7 mph - 0.01 in Rain Light Rain
2:31 AM 37.4 °F 29.3 °F 32.0 °F 81% 29.95 in 10.0 mi NE 12.7 mph 25.3 mph 0.01 in   Overcast
2:42 AM 37.4 °F 29.3 °F 32.0 °F 81% 29.96 in 10.0 mi NE 12.7 mph 23.0 mph 0.01 in Thunderstorm Overcast
2:52 AM 36.0 °F 27.5 °F 33.1 °F 89% 29.99 in 7.0 mi NNE 12.7 mph 27.6 mph 0.03 in Rain Light Rain
3:11 AM 35.6 °F 25.5 °F 32.0 °F 87% 29.96 in 8.0 mi NNE 17.3 mph 31.1 mph 0.01 in Rain , Thunderstorm Rain
3:33 AM 35.6 °F 28.6 °F 32.0 °F 87% 29.99 in 5.0 mi North 9.2 mph 33.4 mph 0.06 in Rain , Thunderstorm Rain
3:44 AM 35.6 °F 25.5 °F 33.8 °F 93% 29.95 in 4.0 mi NE 17.3 mph 24.2 mph 0.10 in Rain , Thunderstorm Heavy Rain
3:52 AM 35.1 °F 25.5 °F 33.1 °F 92% 29.95 in 3.0 mi ENE 15.0 mph - 0.12 in Rain , Thunderstorm Thunderstorms and Rain
4:37 AM 35.6 °F 26.2 °F 33.8 °F 93% 29.96 in 7.0 mi NE 15.0 mph 23.0 mph 0.06 in Rain Light Rain
4:52 AM 35.1 °F 25.2 °F 32.0 °F 89% 29.94 in 8.0 mi ENE 16.1 mph 23.0 mph 0.06 in Rain Light Rain
5:03 AM 35.6 °F 25.9 °F 32.0 °F 87% 29.93 in 10.0 mi NE 16.1 mph 26.5 mph 0.00 in   Overcast
5:35 AM 35.6 °F 27.1 °F 32.0 °F 87% 29.94 in 10.0 mi ENE 12.7 mph 23.0 mph 0.00 in   Overcast
5:52 AM 36.0 °F 26.3 °F 32.0 °F 86% 29.95 in 10.0 mi ENE 16.1 mph 21.9 mph 0.00 in Rain Light Rain
6:04 AM 35.6 °F 26.6 °F 32.0 °F 87% 29.95 in 10.0 mi ENE 13.8 mph 21.9 mph 0.00 in   Overcast
6:52 AM 36.0 °F 27.5 °F 32.0 °F 86% 29.95 in 8.0 mi ENE 12.7 mph - 0.02 in Rain Light Rain
7:08 AM 35.6 °F 28.0 °F 32.0 °F 87% 29.95 in 5.0 mi ENE 10.4 mph 21.9 mph 0.03 in Rain Light Rain
7:52 AM 36.0 °F 28.0 °F 33.1 °F 89% 29.95 in 9.0 mi ENE 11.5 mph - 0.04 in   Overcast
8:52 AM 36.0 °F 27.5 °F 33.1 °F 89% 29.94 in 8.0 mi East 12.7 mph 21.9 mph N/A   Overcast
9:28 AM 35.6 °F 27.5 °F 33.8 °F 93% 29.94 in 10.0 mi ENE 11.5 mph - N/A   Overcast
9:52 AM 37.0 °F 28.5 °F 34.0 °F 89% 29.93 in 10.0 mi ENE 13.8 mph - N/A   Overcast
10:52 AM 37.0 °F 28.9 °F 35.1 °F 93% 29.92 in 10.0 mi ENE 12.7 mph - N/A   Overcast
11:52 AM 37.9 °F 29.2 °F 35.1 °F 89% 29.91 in 10.0 mi ENE 15.0 mph 23.0 mph N/A   Overcast
12:52 PM 37.0 °F 29.3 °F 35.1 °F 93% 29.86 in 6.0 mi ENE 11.5 mph 24.2 mph 0.00 in Rain Light Rain
1:52 PM 37.0 °F 29.8 °F 35.1 °F 93% 29.86 in 7.0 mi NE 10.4 mph 20.7 mph 0.02 in Rain Light Rain
2:52 PM 37.9 °F 32.7 °F 35.1 °F 89% 29.83 in 10.0 mi Variable 6.9 mph - 0.01 in Rain Light Rain
3:52 PM 37.0 °F 30.4 °F 35.1 °F 93% 29.78 in 6.0 mi NE 9.2 mph - 0.00 in   Overcast
4:35 PM 37.4 °F 29.3 °F 35.6 °F 93% 29.77 in 2.0 mi NE 12.7 mph - 0.00 in   Overcast
4:43 PM 37.4 °F 30.3 °F 35.6 °F 93% 29.77 in 1.2 mi ENE 10.4 mph - 0.00 in   Overcast
4:52 PM 37.0 °F 29.3 °F 35.1 °F 93% 29.78 in 1.2 mi ENE 11.5 mph - 0.01 in   Overcast
4:59 PM 37.4 °F 30.8 °F 35.6 °F 93% 29.76 in 1.5 mi NE 9.2 mph - 0.00 in   Overcast
5:16 PM 37.4 °F 29.8 °F 35.6 °F 93% 29.76 in 2.0 mi NE 11.5 mph - 0.00 in   Overcast
5:39 PM 37.4 °F 29.3 °F 35.6 °F 93% 29.74 in 4.0 mi ENE 12.7 mph - 0.00 in   Overcast
5:52 PM 37.0 °F 29.3 °F 35.1 °F 93% 29.75 in 5.0 mi ENE 11.5 mph - 0.00 in   Overcast
6:52 PM 37.0 °F 31.6 °F 35.1 °F 93% 29.74 in 10.0 mi NE 6.9 mph - N/A   Overcast
7:52 PM 36.0 °F 30.3 °F 35.1 °F 97% 29.74 in 9.0 mi ENE 6.9 mph - N/A   Overcast
8:52 PM 36.0 °F 29.0 °F 35.1 °F 97% 29.74 in 4.0 mi ENE 9.2 mph - N/A   Overcast
9:09 PM 35.6 °F 29.2 °F 35.6 °F 100% 29.73 in 5.0 mi ENE 8.1 mph - N/A   Overcast
9:52 PM 37.0 °F 32.4 °F 35.1 °F 93% 29.75 in 5.0 mi NE 5.8 mph - N/A   Overcast
10:52 PM 37.0 °F 33.3 °F 35.1 °F 93% 29.76 in 4.0 mi NE 4.6 mph - N/A   Overcast
11:52 PM 37.0 °F 32.4 °F 36.0 °F 96% 29.74 in 4.0 mi ENE 5.8 mph - N/A   Overcast